North Springfield, VT

3:08 PM EDT on October 01, 2016 (GMT -0400)
Hartness State

Weather History for KVSF - October, 2014

Change the Weather History Date:

Sunday, October 19, 2014

  Actual Average Record
Temperature  
Mean Temperature 44 °F 46 °F  
Max Temperature 50 °F 57 °F 70 °F (2007)
Min Temperature 38 °F 35 °F 21 °F (2015)
Degree Days  
Heating Degree Days 21 19  
Month to date heating degree days 214 306  
Since 1 July heating degree days 430 558  
Cooling Degree Days 0 0  
Month to date cooling degree days 5 0  
Year to date cooling degree days 282 344  
Moisture  
Dew Point 32 °F    
Average Humidity 61    
Maximum Humidity 77    
Minimum Humidity 45    
Precipitation  
Precipitation T in 0.15 in 1.30 in (2012)
Month to date precipitation 3.24 2.92  
Year to date precipitation 32.08 35.05  
Sea Level Pressure  
Sea Level Pressure 29.81 in    
Wind  
Wind Speed 8 mph (NW)    
Max Wind Speed 14 mph    
Max Gust Speed 23 mph    
Visibility 10 miles    
Events      
T = Trace of Precipitation, MM = Missing Value Source: NWS Daily Summary

Daily Weather History Graph

Daily Weather History Graph

Search for Another Location

Airport or City:

Trip Planner

Search our weather history database for the weather conditions in past years. The results will help you decide how hot, cold, wet, or windy it might be!

Date:

Astronomy

Oct. 19, 2014 Rise Set
Actual Time 7:08 AM EDT 6:00 PM EDT
Civil Twilight 6:39 AM EDT 6:29 PM EDT
Nautical Twilight 6:06 AM EDT 7:02 PM EDT
Astronomical Twilight 5:33 AM EDT 7:35 PM EDT
Moon 2:52 AM EDT (10/19) 3:56 PM EDT (10/19)
Length of Visible Light 11h 49m
Length of Day
10h 51m
Waning Crescent, 17% of the Moon is Illuminated
Oct 19
Waning Crescent
Oct 23
New
Oct 30
First Quarter
Nov 6
Full
Nov 14
Last Quarter

Hourly Weather History & Observations

Time (EDT) Temp. Windchill Dew Point Humidity Pressure Visibility Wind Dir Wind Speed Gust Speed Precip Events Conditions
12:11 AM 50.0 °F - 43.0 °F 77% 29.64 in 10.0 mi WNW 6.9 mph - N/A   Overcast
12:21 AM 50.0 °F - 42.1 °F 74% 29.64 in 10.0 mi WNW 8.1 mph - N/A   Overcast
12:54 AM 48.9 °F - 41.0 °F 74% 29.66 in 10.0 mi West 8.1 mph - N/A   Overcast
1:32 AM 48.9 °F - 41.0 °F 74% 29.67 in 10.0 mi West 6.9 mph - N/A   Overcast
1:54 AM 50.0 °F - 39.9 °F 68% 29.68 in 10.0 mi North 8.1 mph 19.6 mph N/A   Overcast
2:25 AM 48.9 °F - 39.0 °F 69% 29.69 in 10.0 mi WNW 4.6 mph - N/A   Overcast
2:54 AM 48.0 °F - 37.0 °F 66% 29.70 in 10.0 mi NW 11.5 mph - N/A   Overcast
3:54 AM 46.9 °F - 35.1 °F 63% 29.71 in 10.0 mi NW 8.1 mph - N/A   Overcast
4:49 AM 44.6 °F 39.7 °F 35.6 °F 71% 29.73 in 10.0 mi WNW 9.2 mph - N/A   Mostly Cloudy
4:54 AM 45.0 °F 42.6 °F 35.1 °F 68% 29.74 in 10.0 mi Variable 4.6 mph - N/A   Overcast
5:54 AM 45.0 °F 41.2 °F 34.0 °F 65% 29.77 in 10.0 mi NW 6.9 mph - N/A   Overcast
6:16 AM 44.1 °F 41.5 °F 35.1 °F 71% 29.76 in 10.0 mi NW 4.6 mph - N/A   Overcast
6:54 AM 43.0 °F 40.3 °F 34.0 °F 71% 29.80 in 10.0 mi NW 4.6 mph - N/A   Partly Cloudy
7:54 AM 44.1 °F 41.5 °F 33.1 °F 65% 29.83 in 10.0 mi NW 4.6 mph - N/A   Overcast
8:54 AM 45.0 °F 41.2 °F 32.0 °F 60% 29.85 in 10.0 mi Variable 6.9 mph - N/A   Mostly Cloudy
9:54 AM 45.0 °F 40.6 °F 30.9 °F 58% 29.86 in 10.0 mi WNW 8.1 mph 18.4 mph 0.00 in   Partly Cloudy
10:54 AM 46.9 °F - 30.0 °F 52% 29.85 in 10.0 mi NW 9.2 mph 18.4 mph N/A   Mostly Cloudy
11:54 AM 48.0 °F - 28.9 °F 48% 29.85 in 10.0 mi NW 10.4 mph 17.3 mph N/A   Mostly Cloudy
12:54 PM 46.9 °F - 27.0 °F 46% 29.86 in 10.0 mi NNW 13.8 mph 23.0 mph N/A   Mostly Cloudy
1:54 PM 46.9 °F - 27.0 °F 46% 29.85 in 10.0 mi NW 10.4 mph 21.9 mph N/A   Mostly Cloudy
2:54 PM 46.9 °F - 26.1 °F 44% 29.85 in 10.0 mi NNW 8.1 mph 20.7 mph N/A   Overcast
3:54 PM 46.0 °F 40.6 °F 27.0 °F 47% 29.88 in 10.0 mi WNW 11.5 mph - N/A   Overcast
4:54 PM 45.0 °F 40.1 °F 27.0 °F 49% 29.90 in 10.0 mi West 9.2 mph - N/A   Overcast
5:54 PM 44.1 °F 40.8 °F 26.1 °F 49% 29.93 in 10.0 mi NW 5.8 mph - N/A   Overcast
6:54 PM 43.0 °F 37.2 °F 26.1 °F 51% 29.96 in 10.0 mi NW 10.4 mph 17.3 mph N/A   Overcast
7:54 PM 42.1 °F 37.1 °F 25.0 °F 51% 29.98 in 10.0 mi WNW 8.1 mph - N/A   Overcast
8:54 PM 39.9 °F 36.7 °F 21.9 °F 49% 29.99 in 10.0 mi NW 4.6 mph - N/A   Mostly Cloudy
9:54 PM 39.0 °F 32.8 °F 24.1 °F 55% 29.99 in 10.0 mi WNW 9.2 mph - N/A   Mostly Cloudy
10:54 PM 37.9 °F 32.7 °F 24.1 °F 57% 30.00 in 10.0 mi West 6.9 mph - N/A   Clear
11:54 PM 36.0 °F 31.1 °F 24.1 °F 62% 30.00 in 10.0 mi WSW 5.8 mph - N/A   Clear